Location: Unspecified
(32.5099°N, 80.0190°W)
Time: 06:51:47
(UTC-04:00)

CZ-3 Stage 3 - Visible Passes

Search period start: 25 July 2017 00:00
Search period end: 04 August 2017 00:00
Orbit: 426 x 34772 km, 31.0° (Epoch: 24 July)

Date Brightness Start Highest point End Pass type
(mag) Time Alt. Az. Time Alt. Az. Time Alt. Az.
25 Jul 10.8 22:49:39 10° W 22:58:56 10° W 23:08:58 10° W visible
26 Jul 9.1 17:59:36 10° WNW 19:12:23 58° WSW 01:00:33 10° WSW visible
27 Jul 6.9 14:17:26 10° W 18:13:01 51° SE 23:26:19 10° S visible
29 Jul 9.0 17:50:27 10° WNW 19:02:01 57° WSW 00:46:34 10° WSW visible
30 Jul 6.9 14:08:19 10° W 17:57:40 51° SE 23:16:20 10° S visible
01 Aug 9.0 17:41:20 10° WNW 18:51:42 57° WSW 00:32:36 10° WSW visible
02 Aug 6.9 13:59:13 10° W 17:41:45 50° SE 23:06:20 10° S visible
